Location: Katzenstein
(51.7484°N, 10.2155°E)
Time: 14:42:18
(UTC+00:00)

Cosmos 2219 Rocket - Pass Details

Date: 17 February 2020
Orbit: 828 x 846 km, 71.0° (Epoch: 27 March)

Event Time Altitude Azimuth Distance (km) Brightness Sun altitude
Exits shadow 05:56:37 - 307° (NW) 3,013 4.5 -5.9°
Reaches altitude 10° 05:59:38 10° 332° (NNW) 2,480 4.3 -5.5°
Maximum altitude 06:01:22 11° 350° (N) 2,387 4.3 -5.2°
Drops below altitude 10° 06:03:05 10° 8° (N) 2,479 4.6 -5.0°
Sets 06:07:41 0° 42° (NE) 3,412 5.8 -4.3°
